date,time,SUV Intensity [MED/Hr],UV Index,Daily total [MED],Since Last [MED]
31/05/2022,00:08:49,0.000,0.0,0.0,0.0
31/05/2022,00:10:42,0.000,0.0,0.0,0.0
31/05/2022,00:11:41,0.000,0.0,0.0,0.0
31/05/2022,00:12:41,0.001,0.0,0.0,0.0
31/05/2022,00:13:43,-0.001,0.0,0.0,0.0
31/05/2022,00:14:42,0.000,0.0,0.0,0.0
31/05/2022,00:15:40,0.000,0.0,0.0,0.0
31/05/2022,00:16:50,0.000,0.0,0.0,0.0
31/05/2022,00:18:42,0.001,0.0,0.0,0.0
31/05/2022,00:19:41,0.000,0.0,0.0,0.0
31/05/2022,00:20:49,0.000,0.0,0.0,0.0
31/05/2022,00:22:43,0.000,0.0,0.0,0.0
31/05/2022,00:23:41,-0.001,0.0,0.0,0.0
31/05/2022,00:24:41,0.001,0.0,0.0,0.0
31/05/2022,00:25:57,0.000,0.0,0.0,0.0
31/05/2022,00:27:42,0.000,0.0,0.0,0.0
31/05/2022,00:28:41,0.000,0.0,0.0,0.0
31/05/2022,00:29:41,0.000,0.0,0.0,0.0
31/05/2022,00:30:41,0.000,0.0,0.0,0.0
31/05/2022,00:31:41,0.000,0.0,0.0,0.0
31/05/2022,00:32:41,0.000,0.0,0.0,0.0
31/05/2022,00:33:41,0.000,0.0,0.0,0.0
31/05/2022,00:34:42,0.000,0.0,0.0,0.0
31/05/2022,00:35:41,0.000,0.0,0.0,0.0
31/05/2022,00:36:41,0.001,0.0,0.0,0.0
31/05/2022,00:37:43,0.000,0.0,0.0,0.0
31/05/2022,00:38:41,-0.001,0.0,0.0,0.0
31/05/2022,00:39:41,0.000,0.0,0.0,0.0
31/05/2022,00:40:41,0.000,0.0,0.0,0.0
31/05/2022,00:41:41,0.000,0.0,0.0,0.0
31/05/2022,00:42:41,0.000,0.0,0.0,0.0
31/05/2022,00:43:41,-0.000,0.0,0.0,0.0
31/05/2022,00:44:41,0.000,0.0,0.0,0.0
31/05/2022,00:45:41,0.000,0.0,0.0,0.0
31/05/2022,00:46:41,0.000,0.0,0.0,0.0
31/05/2022,00:47:41,0.000,0.0,0.0,0.0
31/05/2022,00:48:41,0.000,0.0,0.0,0.0
31/05/2022,00:49:49,-0.001,0.0,0.0,0.0
31/05/2022,00:51:42,-0.000,0.0,0.0,0.0
31/05/2022,00:52:41,0.000,0.0,0.0,0.0
31/05/2022,00:53:41,0.000,0.0,0.0,0.0
31/05/2022,00:54:41,0.001,0.0,0.0,0.0
31/05/2022,00:55:41,-0.001,0.0,0.0,0.0
31/05/2022,00:56:50,0.000,0.0,0.0,0.0
31/05/2022,00:57:40,0.001,0.0,0.0,0.0
31/05/2022,00:58:41,0.001,0.0,0.0,0.0
31/05/2022,00:59:49,0.000,0.0,0.0,0.0
31/05/2022,01:01:42,0.000,0.0,0.0,0.0
31/05/2022,01:02:41,0.000,0.0,0.0,0.0
31/05/2022,01:03:41,0.000,0.0,0.0,0.0
31/05/2022,01:04:41,0.000,0.0,0.0,0.0
31/05/2022,01:05:41,-0.001,0.0,0.0,0.0
31/05/2022,01:06:49,0.000,0.0,0.0,0.0
31/05/2022,01:07:41,0.000,0.0,0.0,0.0
31/05/2022,01:08:49,0.000,0.0,0.0,0.0
31/05/2022,01:09:41,0.001,0.0,0.0,0.0
31/05/2022,01:10:41,0.000,0.0,0.0,0.0
31/05/2022,01:11:43,0.000,0.0,0.0,0.0
31/05/2022,01:12:50,0.000,0.0,0.0,0.0
31/05/2022,01:14:41,0.000,0.0,0.0,0.0
31/05/2022,01:15:41,0.000,0.0,0.0,0.0
31/05/2022,01:16:42,0.001,0.0,0.0,0.0
31/05/2022,01:17:41,0.000,0.0,0.0,0.0
31/05/2022,01:18:49,-0.001,0.0,0.0,0.0
31/05/2022,01:20:42,0.000,0.0,0.0,0.0
31/05/2022,01:21:40,0.000,0.0,0.0,0.0
31/05/2022,01:22:41,0.000,0.0,0.0,0.0
31/05/2022,01:23:41,0.000,0.0,0.0,0.0
31/05/2022,01:24:41,0.000,0.0,0.0,0.0
31/05/2022,01:25:41,0.000,0.0,0.0,0.0
31/05/2022,01:26:41,0.001,0.0,0.0,0.0
31/05/2022,01:27:41,0.000,0.0,0.0,0.0
31/05/2022,01:28:41,0.000,0.0,0.0,0.0
31/05/2022,01:29:41,0.000,0.0,0.0,0.0
31/05/2022,01:30:42,0.001,0.0,0.0,0.0
31/05/2022,01:31:41,0.000,0.0,0.0,0.0
31/05/2022,01:32:41,-0.001,0.0,0.0,0.0
31/05/2022,01:33:41,0.000,0.0,0.0,0.0
31/05/2022,01:34:41,0.000,0.0,0.0,0.0
31/05/2022,01:35:41,0.001,0.0,0.0,0.0
31/05/2022,01:36:50,0.000,0.0,0.0,0.0
31/05/2022,01:38:42,0.000,0.0,0.0,0.0
31/05/2022,01:39:50,0.000,0.0,0.0,0.0
31/05/2022,01:40:41,0.000,0.0,0.0,0.0
31/05/2022,01:41:41,0.000,0.0,0.0,0.0
31/05/2022,01:42:42,0.000,0.0,0.0,0.0
31/05/2022,01:43:41,0.000,0.0,0.0,0.0
31/05/2022,01:44:41,-0.000,0.0,0.0,0.0
31/05/2022,01:45:42,0.000,0.0,0.0,0.0
31/05/2022,01:46:43,0.000,0.0,0.0,0.0
31/05/2022,01:47:50,0.000,0.0,0.0,0.0
31/05/2022,01:48:49,0.001,0.0,0.0,0.0
31/05/2022,01:49:41,0.000,0.0,0.0,0.0
31/05/2022,01:50:41,0.001,0.0,0.0,0.0
31/05/2022,01:51:41,0.000,0.0,0.0,0.0
31/05/2022,01:52:41,0.000,0.0,0.0,0.0
31/05/2022,01:53:42,0.000,0.0,0.0,0.0
31/05/2022,01:54:41,0.001,0.0,0.0,0.0
31/05/2022,01:55:42,0.001,0.0,0.0,0.0
31/05/2022,01:56:41,0.000,0.0,0.0,0.0
31/05/2022,01:57:50,-0.000,0.0,0.0,0.0
31/05/2022,01:59:42,0.001,0.0,0.0,0.0
31/05/2022,02:00:41,0.001,0.0,0.0,0.0
31/05/2022,02:01:41,0.000,0.0,0.0,0.0
31/05/2022,02:02:42,0.001,0.0,0.0,0.0
31/05/2022,02:03:41,-0.001,0.0,0.0,0.0
31/05/2022,02:04:41,0.000,0.0,0.0,0.0
31/05/2022,02:05:41,0.000,0.0,0.0,0.0
31/05/2022,02:06:41,0.001,0.0,0.0,0.0
31/05/2022,02:07:49,0.000,0.0,0.0,0.0
31/05/2022,02:09:42,0.001,0.0,0.0,0.0
31/05/2022,02:10:41,0.000,0.0,0.0,0.0
31/05/2022,02:11:41,0.000,0.0,0.0,0.0
31/05/2022,02:12:41,-0.001,0.0,0.0,0.0
31/05/2022,02:13:42,0.001,0.0,0.0,0.0
31/05/2022,02:14:41,-0.001,0.0,0.0,0.0
31/05/2022,02:15:41,0.001,0.0,0.0,0.0
31/05/2022,02:16:41,0.001,0.0,0.0,0.0
31/05/2022,02:17:41,0.001,0.0,0.0,0.0
31/05/2022,02:18:42,0.000,0.0,0.0,0.0
31/05/2022,02:19:41,0.000,0.0,0.0,0.0
31/05/2022,02:20:50,0.000,0.0,0.0,0.0
31/05/2022,02:21:41,0.001,0.0,0.0,0.0
31/05/2022,02:22:41,0.000,0.0,0.0,0.0
31/05/2022,02:23:41,0.001,0.0,0.0,0.0
31/05/2022,02:24:42,0.001,0.0,0.0,0.0
31/05/2022,02:25:41,0.001,0.0,0.0,0.0
31/05/2022,02:26:41,0.001,0.0,0.0,0.0
31/05/2022,02:27:41,0.001,0.0,0.0,0.0
31/05/2022,02:28:41,0.000,0.0,0.0,0.0
31/05/2022,02:29:41,0.000,0.0,0.0,0.0
31/05/2022,02:30:49,0.000,0.0,0.0,0.0
31/05/2022,02:31:41,0.001,0.0,0.0,0.0
31/05/2022,02:32:41,0.001,0.0,0.0,0.0
31/05/2022,02:33:42,0.000,0.0,0.0,0.0
31/05/2022,02:34:41,0.001,0.0,0.0,0.0
31/05/2022,02:35:54,0.001,0.0,0.0,0.0
31/05/2022,02:37:42,0.001,0.0,0.0,0.0
31/05/2022,02:38:49,0.001,0.0,0.0,0.0
31/05/2022,02:40:41,0.001,0.0,0.0,0.0
31/05/2022,02:41:41,0.001,0.0,0.0,0.0
31/05/2022,02:42:41,0.001,0.0,0.0,0.0
31/05/2022,02:43:41,0.001,0.0,0.0,0.0
31/05/2022,02:44:41,0.001,0.0,0.0,0.0
31/05/2022,02:45:41,0.001,0.0,0.0,0.0
31/05/2022,02:46:41,0.001,0.0,0.0,0.0
31/05/2022,02:47:41,0.001,0.0,0.0,0.0
31/05/2022,02:48:50,0.001,0.0,0.0,0.0
31/05/2022,02:49:41,0.001,0.0,0.0,0.0
31/05/2022,02:50:41,0.000,0.0,0.0,0.0
31/05/2022,02:51:50,0.001,0.0,0.0,0.0
31/05/2022,02:52:41,0.001,0.0,0.0,0.0
31/05/2022,02:53:50,0.001,0.0,0.0,0.0
31/05/2022,02:55:50,0.001,0.0,0.0,0.0
31/05/2022,02:57:42,0.001,0.0,0.0,0.0
31/05/2022,02:58:42,-0.000,0.0,0.0,0.0
31/05/2022,02:59:42,0.001,0.0,0.0,0.0
31/05/2022,03:00:42,0.000,0.0,0.0,0.0
31/05/2022,03:01:49,0.001,0.0,0.0,0.0
31/05/2022,03:02:41,0.000,0.0,0.0,0.0
31/05/2022,03:03:42,0.001,0.0,0.0,0.0
31/05/2022,03:04:41,0.001,0.0,0.0,0.0
31/05/2022,03:05:41,0.001,0.0,0.0,0.0
31/05/2022,03:06:41,0.001,0.0,0.0,0.0
31/05/2022,03:07:41,0.000,0.0,0.0,0.0
31/05/2022,03:08:42,0.001,0.0,0.0,0.0
31/05/2022,03:09:42,-0.001,0.0,0.0,0.0
31/05/2022,03:10:41,0.001,0.0,0.0,0.0
31/05/2022,03:11:49,-0.000,0.0,0.0,0.0
31/05/2022,03:13:42,0.001,0.0,0.0,0.0
31/05/2022,03:14:42,0.001,0.0,0.0,0.0
31/05/2022,03:15:41,0.001,0.0,0.0,0.0
31/05/2022,03:16:41,0.001,0.0,0.0,0.0
31/05/2022,03:17:41,0.001,0.0,0.0,0.0
31/05/2022,03:18:42,0.001,0.0,0.0,0.0
31/05/2022,03:19:41,0.001,0.0,0.0,0.0
31/05/2022,03:20:41,0.001,0.0,0.0,0.0
31/05/2022,03:21:50,0.001,0.0,0.0,0.0
31/05/2022,03:23:43,0.001,0.0,0.0,0.0
31/05/2022,03:24:42,0.001,0.0,0.0,0.0
31/05/2022,03:25:42,0.001,0.0,0.0,0.0
31/05/2022,03:26:42,0.001,0.0,0.0,0.0
31/05/2022,03:27:41,0.001,0.0,0.0,0.0
31/05/2022,03:28:41,0.001,0.0,0.0,0.0
31/05/2022,03:29:41,0.001,0.0,0.0,0.0
31/05/2022,03:30:42,0.001,0.0,0.0,0.0
31/05/2022,03:31:43,0.001,0.0,0.0,0.0
31/05/2022,03:32:50,0.001,0.0,0.0,0.0
31/05/2022,03:34:42,0.001,0.0,0.0,0.0
31/05/2022,03:35:41,0.001,0.0,0.0,0.0
31/05/2022,03:36:42,0.001,0.0,0.0,0.0
31/05/2022,03:37:41,0.000,0.0,0.0,0.0
31/05/2022,03:38:42,0.001,0.0,0.0,0.0
31/05/2022,03:39:41,0.001,0.0,0.0,0.0
31/05/2022,03:40:41,0.001,0.0,0.0,0.0
31/05/2022,03:41:41,0.000,0.0,0.0,0.0
31/05/2022,03:42:41,0.001,0.0,0.0,0.0
31/05/2022,03:43:42,0.001,0.0,0.0,0.0
31/05/2022,03:44:42,0.001,0.0,0.0,0.0
31/05/2022,03:45:41,0.001,0.0,0.0,0.0
31/05/2022,03:46:43,0.001,0.0,0.0,0.0
31/05/2022,03:47:41,0.001,0.0,0.0,0.0
31/05/2022,03:48:41,0.001,0.0,0.0,0.0
31/05/2022,03:49:50,0.000,0.0,0.0,0.0
31/05/2022,03:50:41,0.001,0.0,0.0,0.0
31/05/2022,03:51:41,0.001,0.0,0.0,0.0
31/05/2022,03:52:43,0.001,0.0,0.0,0.0
31/05/2022,03:53:41,0.001,0.0,0.0,0.0
31/05/2022,03:54:42,0.001,0.0,0.0,0.0
31/05/2022,03:55:42,0.001,0.0,0.0,0.0
31/05/2022,03:56:50,0.001,0.0,0.0,0.0
31/05/2022,03:58:42,0.001,0.0,0.0,0.0
31/05/2022,03:59:41,0.001,0.0,0.0,0.0
31/05/2022,04:00:41,0.000,0.0,0.0,0.0
31/05/2022,04:01:41,0.001,0.0,0.0,0.0
31/05/2022,04:02:50,0.001,0.0,0.0,0.0
31/05/2022,04:03:41,0.001,0.0,0.0,0.0
31/05/2022,04:04:42,0.001,0.0,0.0,0.0
31/05/2022,04:05:58,0.001,0.0,0.0,0.0
31/05/2022,04:07:42,0.001,0.0,0.0,0.0
31/05/2022,04:08:42,0.001,0.0,0.0,0.0
31/05/2022,04:09:41,0.001,0.0,0.0,0.0
31/05/2022,04:10:41,0.002,0.0,0.0,0.0
31/05/2022,04:11:42,0.002,0.0,0.0,0.0
31/05/2022,04:12:50,0.002,0.0,0.0,0.0
31/05/2022,04:14:50,0.003,0.0,0.0,0.0
31/05/2022,04:16:42,0.002,0.0,0.0,0.0
31/05/2022,04:17:42,0.003,0.0,0.0,0.0
31/05/2022,04:18:41,0.002,0.0,0.0,0.0
31/05/2022,04:19:42,0.002,0.0,0.0,0.0
31/05/2022,04:20:49,0.002,0.0,0.0,0.0
31/05/2022,04:21:41,0.002,0.0,0.0,0.0
31/05/2022,04:22:41,0.002,0.0,0.0,0.0
31/05/2022,04:23:41,0.004,0.0,0.0,0.0
31/05/2022,04:24:41,0.004,0.0,0.0,0.0
31/05/2022,04:25:41,0.002,0.0,0.0,0.0
31/05/2022,04:26:41,0.003,0.0,0.0,0.0
31/05/2022,04:27:42,0.003,0.0,0.0,0.0
31/05/2022,04:28:41,0.003,0.0,0.0,0.0
31/05/2022,04:29:42,0.003,0.0,0.0,0.0
31/05/2022,04:30:41,0.004,0.0,0.0,0.0
31/05/2022,04:31:42,0.003,0.0,0.0,0.0
31/05/2022,04:32:42,0.004,0.0,0.0,0.0
31/05/2022,04:34:06,0.004,0.0,0.0,0.0
31/05/2022,04:35:42,0.004,0.0,0.0,0.0
31/05/2022,04:36:42,0.004,0.0,0.0,0.0
31/05/2022,04:37:41,0.004,0.0,0.0,0.0
31/05/2022,04:38:42,0.004,0.0,0.0,0.0
31/05/2022,04:39:42,0.004,0.0,0.0,0.0
31/05/2022,04:40:42,0.005,0.0,0.0,0.0
31/05/2022,04:41:42,0.005,0.0,0.0,0.0
31/05/2022,04:42:49,0.005,0.0,0.0,0.0
31/05/2022,04:43:42,0.005,0.0,0.0,0.0
31/05/2022,04:44:42,0.005,0.0,0.0,0.0
31/05/2022,04:45:42,0.004,0.0,0.0,0.0
31/05/2022,04:46:42,0.005,0.0,0.0,0.0
31/05/2022,04:47:42,0.006,0.0,0.0,0.0
31/05/2022,04:48:42,0.007,0.0,0.0,0.0
31/05/2022,04:49:41,0.006,0.0,0.0,0.0
31/05/2022,04:50:41,0.007,0.0,0.0,0.0
31/05/2022,04:51:41,0.007,0.0,0.0,0.0
31/05/2022,04:52:41,0.008,0.0,0.0,0.0
31/05/2022,04:53:41,0.008,0.0,0.001,0.001
31/05/2022,04:54:42,0.008,0.0,0.001,0.0
31/05/2022,04:55:41,0.010,0.0,0.001,0.0
31/05/2022,04:56:41,0.009,0.0,0.001,0.0
31/05/2022,04:57:41,0.010,0.0,0.001,0.0
31/05/2022,04:58:41,0.010,0.0,0.001,0.0
31/05/2022,04:59:41,0.010,0.0,0.001,0.0
31/05/2022,05:00:50,0.010,0.0,0.002,0.001
31/05/2022,05:02:51,0.012,0.0,0.002,0.0
31/05/2022,05:04:43,0.012,0.0,0.002,0.0
31/05/2022,05:05:42,0.012,0.0,0.003,0.001
31/05/2022,05:06:41,0.013,0.0,0.003,0.0
31/05/2022,05:07:42,0.014,0.0,0.003,0.0
31/05/2022,05:08:41,0.015,0.0,0.003,0.0
31/05/2022,05:09:41,0.015,0.0,0.004,0.001
31/05/2022,05:10:42,0.014,0.0,0.004,0.0
31/05/2022,05:11:50,0.016,0.0,0.004,0.0
31/05/2022,05:13:42,0.017,0.0,0.005,0.001
31/05/2022,05:14:41,0.017,0.0,0.005,0.0
31/05/2022,05:15:42,0.018,0.0,0.005,0.0
31/05/2022,05:16:41,0.019,0.0,0.005,0.0
31/05/2022,05:17:41,0.020,0.0,0.006,0.001
31/05/2022,05:18:50,0.019,0.0,0.006,0.0
31/05/2022,05:19:41,0.019,0.0,0.006,0.0
31/05/2022,05:20:42,0.021,0.0,0.007,0.001
31/05/2022,05:21:50,0.022,0.0,0.007,0.0
31/05/2022,05:23:42,0.023,0.0,0.008,0.001
31/05/2022,05:24:42,0.025,0.0,0.008,0.0
31/05/2022,05:25:41,0.025,0.0,0.009,0.001
31/05/2022,05:26:42,0.026,0.0,0.009,0.0
31/05/2022,05:27:41,0.027,0.0,0.01,0.001
31/05/2022,05:28:41,0.029,0.0,0.01,0.0
31/05/2022,05:29:42,0.030,0.0,0.01,0.0
31/05/2022,05:30:42,0.031,0.0,0.011,0.001
31/05/2022,05:31:41,0.033,0.0,0.012,0.001
31/05/2022,05:32:42,0.034,0.0,0.012,0.0
31/05/2022,05:33:41,0.035,0.0,0.013,0.001
31/05/2022,05:34:41,0.036,0.0,0.013,0.0
31/05/2022,05:35:41,0.038,0.0,0.014,0.001
31/05/2022,05:36:41,0.039,0.0,0.015,0.001
31/05/2022,05:37:42,0.040,0.0,0.015,0.0
31/05/2022,05:38:42,0.042,0.0,0.016,0.001
31/05/2022,05:39:42,0.043,0.0,0.017,0.001
31/05/2022,05:40:41,0.044,0.0,0.017,0.0
31/05/2022,05:41:41,0.046,0.0,0.018,0.001
31/05/2022,05:42:50,0.047,0.0,0.019,0.001
31/05/2022,05:43:42,0.049,0.0,0.02,0.001
31/05/2022,05:44:42,0.050,0.0,0.02,0.0
31/05/2022,05:45:42,0.050,0.0,0.021,0.001
31/05/2022,05:46:42,0.053,0.0,0.022,0.001
31/05/2022,05:47:42,0.053,0.0,0.023,0.001
31/05/2022,05:48:33,0.055,0.0,0.024,0.001
31/05/2022,05:49:43,0.056,0.0,0.025,0.001
31/05/2022,05:50:41,0.057,0.0,0.026,0.001
31/05/2022,05:51:42,0.059,0.0,0.027,0.001
31/05/2022,05:52:41,0.060,0.0,0.028,0.001
31/05/2022,05:53:51,0.061,0.0,0.029,0.001
31/05/2022,05:55:42,0.062,0.0,0.031,0.002
31/05/2022,05:56:42,0.064,0.0,0.032,0.001
31/05/2022,05:57:42,0.064,0.0,0.033,0.001
31/05/2022,05:58:42,0.065,0.0,0.034,0.001
31/05/2022,05:59:50,0.065,0.0,0.035,0.001
31/05/2022,06:00:42,0.067,0.0,0.036,0.001
31/05/2022,06:01:41,0.068,0.0,0.037,0.001
31/05/2022,06:02:42,0.069,0.0,0.038,0.001
31/05/2022,06:03:42,0.071,0.0,0.04,0.002
31/05/2022,06:04:42,0.073,0.0,0.041,0.001
31/05/2022,06:05:41,0.075,0.0,0.042,0.001
31/05/2022,06:06:42,0.077,0.0,0.043,0.001
31/05/2022,06:07:41,0.080,0.0,0.045,0.002
31/05/2022,06:08:42,0.082,0.0,0.046,0.001
31/05/2022,06:09:50,0.087,0.0,0.048,0.002
31/05/2022,06:11:43,0.092,0.0,0.05,0.002
31/05/2022,06:12:41,0.095,0.0,0.052,0.002
31/05/2022,06:13:42,0.097,0.0,0.054,0.002
31/05/2022,06:14:41,0.098,0.0,0.055,0.001
31/05/2022,06:15:41,0.100,0.0,0.057,0.002
31/05/2022,06:16:42,0.101,0.0,0.059,0.002
31/05/2022,06:17:41,0.101,0.0,0.06,0.001
31/05/2022,06:18:42,0.102,0.0,0.062,0.002
31/05/2022,06:19:42,0.101,0.0,0.064,0.002
31/05/2022,06:20:50,0.102,0.0,0.066,0.002
31/05/2022,06:21:41,0.102,0.0,0.067,0.001
31/05/2022,06:22:42,0.102,0.0,0.069,0.002
31/05/2022,06:23:41,0.104,0.0,0.07,0.001
31/05/2022,06:24:42,0.107,0.0,0.072,0.002
31/05/2022,06:25:41,0.109,0.0,0.074,0.002
31/05/2022,06:26:42,0.112,0.0,0.076,0.002
31/05/2022,06:27:42,0.115,0.0,0.078,0.002
31/05/2022,06:28:42,0.119,0.0,0.08,0.002
31/05/2022,06:29:41,0.122,0.0,0.082,0.002
31/05/2022,06:30:50,0.125,0.0,0.084,0.002
31/05/2022,06:32:42,0.131,0.0,0.088,0.004
31/05/2022,06:33:42,0.132,0.0,0.09,0.002
31/05/2022,06:34:41,0.135,0.0,0.092,0.002
31/05/2022,06:35:42,0.137,0.0,0.095,0.003
31/05/2022,06:36:42,0.140,0.0,0.097,0.002
31/05/2022,06:37:50,0.144,0.0,0.1,0.003
31/05/2022,06:39:43,0.149,0.0,0.104,0.004
31/05/2022,06:40:42,0.154,0.0,0.107,0.003
31/05/2022,06:41:43,0.158,0.0,0.109,0.002
31/05/2022,06:42:42,0.164,0.0,0.112,0.003
31/05/2022,06:43:41,0.170,0.0,0.115,0.003
31/05/2022,06:44:42,0.177,0.0,0.118,0.003
31/05/2022,06:45:41,0.183,0.0,0.121,0.003
31/05/2022,06:46:42,0.190,0.0,0.124,0.003
31/05/2022,06:47:50,0.197,0.0,0.128,0.004
31/05/2022,06:49:59,0.205,0.0,0.135,0.007
31/05/2022,06:51:42,0.210,0.0,0.141,0.006
31/05/2022,06:52:41,0.215,0.0,0.144,0.003
31/05/2022,06:53:58,0.221,1.0,0.149,0.005
31/05/2022,06:55:53,0.221,1.0,0.156,0.007
31/05/2022,06:57:42,0.230,1.0,0.163,0.007
31/05/2022,06:58:41,0.234,1.0,0.167,0.004
31/05/2022,06:59:42,0.233,1.0,0.171,0.004
31/05/2022,07:00:42,0.236,1.0,0.174,0.003
31/05/2022,07:01:41,0.233,1.0,0.178,0.004
31/05/2022,07:02:41,0.235,1.0,0.182,0.004
31/05/2022,07:03:41,0.234,1.0,0.186,0.004
31/05/2022,07:04:42,0.232,1.0,0.19,0.004
31/05/2022,07:05:50,0.233,1.0,0.194,0.004
31/05/2022,07:07:42,0.236,1.0,0.202,0.008
31/05/2022,07:08:42,0.233,1.0,0.206,0.004
31/05/2022,07:09:42,0.235,1.0,0.21,0.004
31/05/2022,07:10:42,0.239,1.0,0.214,0.004
31/05/2022,07:11:42,0.242,1.0,0.218,0.004
31/05/2022,07:12:41,0.248,1.0,0.222,0.004
31/05/2022,07:13:42,0.253,1.0,0.226,0.004
31/05/2022,07:14:42,0.258,1.0,0.23,0.004
31/05/2022,07:15:50,0.259,1.0,0.235,0.005
31/05/2022,07:17:42,0.261,1.0,0.243,0.008
31/05/2022,07:18:42,0.261,1.0,0.247,0.004
31/05/2022,07:19:42,0.262,1.0,0.252,0.005
31/05/2022,07:20:42,0.264,1.0,0.256,0.004
31/05/2022,07:21:49,0.267,1.0,0.261,0.005
31/05/2022,07:23:43,0.273,1.0,0.27,0.009
31/05/2022,07:24:41,0.275,1.0,0.274,0.004
31/05/2022,07:25:49,0.277,1.0,0.279,0.005
31/05/2022,07:26:41,0.279,1.0,0.283,0.004
31/05/2022,07:27:42,0.280,1.0,0.288,0.005
31/05/2022,07:28:50,0.286,1.0,0.293,0.005
31/05/2022,07:30:59,0.298,1.0,0.304,0.011
31/05/2022,07:32:50,0.307,1.0,0.313,0.009
31/05/2022,07:34:43,0.317,1.0,0.323,0.01
31/05/2022,07:35:50,0.319,1.0,0.329,0.006
31/05/2022,07:37:42,0.324,1.0,0.339,0.01
31/05/2022,07:38:43,0.324,1.0,0.344,0.005
31/05/2022,07:39:42,0.326,1.0,0.35,0.006
31/05/2022,07:40:42,0.329,1.0,0.355,0.005
31/05/2022,07:41:42,0.334,1.0,0.361,0.006
31/05/2022,07:42:42,0.338,1.0,0.366,0.005
31/05/2022,07:43:42,0.343,1.0,0.372,0.006
31/05/2022,07:44:42,0.349,1.0,0.378,0.006
31/05/2022,07:45:50,0.363,1.0,0.385,0.007
31/05/2022,07:46:42,0.364,1.0,0.39,0.005
31/05/2022,07:47:42,0.371,1.0,0.396,0.006
31/05/2022,07:48:41,0.371,1.0,0.402,0.006
31/05/2022,07:49:42,0.356,1.0,0.408,0.006
31/05/2022,07:50:42,0.365,1.0,0.414,0.006
31/05/2022,07:51:42,0.360,1.0,0.42,0.006
31/05/2022,07:52:42,0.360,1.0,0.426,0.006
31/05/2022,07:53:42,0.364,1.0,0.432,0.006
31/05/2022,07:54:42,0.364,1.0,0.438,0.006
31/05/2022,07:55:42,0.356,1.0,0.444,0.006
31/05/2022,07:56:41,0.351,1.0,0.45,0.006
31/05/2022,07:57:42,0.347,1.0,0.456,0.006
31/05/2022,07:58:42,0.340,1.0,0.462,0.006
31/05/2022,07:59:50,0.332,1.0,0.468,0.006
31/05/2022,08:00:42,0.333,1.0,0.473,0.005
31/05/2022,08:01:50,0.338,1.0,0.479,0.006
31/05/2022,08:02:50,0.345,1.0,0.485,0.006
31/05/2022,08:03:41,0.350,1.0,0.49,0.005
31/05/2022,08:04:42,0.360,1.0,0.496,0.006
31/05/2022,08:05:42,0.370,1.0,0.502,0.006
31/05/2022,08:06:42,0.379,1.0,0.508,0.006
31/05/2022,08:07:42,0.388,1.0,0.515,0.007
31/05/2022,08:08:42,0.395,1.0,0.521,0.006
31/05/2022,08:10:16,0.405,1.0,0.532,0.011
31/05/2022,08:11:43,0.416,1.0,0.542,0.01
31/05/2022,08:12:55,0.420,1.0,0.55,0.008
31/05/2022,08:14:43,0.428,1.0,0.562,0.012
31/05/2022,08:15:42,0.441,1.0,0.57,0.008
31/05/2022,08:16:42,0.447,1.0,0.577,0.007
31/05/2022,08:17:42,0.449,1.0,0.584,0.007
31/05/2022,08:18:41,0.452,1.0,0.592,0.008
31/05/2022,08:19:50,0.461,1.0,0.601,0.009
31/05/2022,08:20:42,0.439,1.0,0.607,0.006
31/05/2022,08:21:42,0.431,1.0,0.615,0.008
31/05/2022,08:22:42,0.419,1.0,0.622,0.007
31/05/2022,08:23:51,0.409,1.0,0.63,0.008
31/05/2022,08:25:42,0.392,1.0,0.642,0.012
31/05/2022,08:26:33,0.379,1.0,0.647,0.005
31/05/2022,08:27:43,0.387,1.0,0.655,0.008
31/05/2022,08:28:42,0.404,1.0,0.661,0.006
31/05/2022,08:29:42,0.411,1.0,0.668,0.007
31/05/2022,08:30:42,0.412,1.0,0.675,0.007
31/05/2022,08:31:42,0.413,1.0,0.682,0.007
31/05/2022,08:32:42,0.416,1.0,0.689,0.007
31/05/2022,08:33:50,0.428,1.0,0.697,0.008
31/05/2022,08:35:42,0.458,1.0,0.711,0.014
31/05/2022,08:36:42,0.467,1.0,0.718,0.007
31/05/2022,08:37:42,0.483,1.0,0.726,0.008
31/05/2022,08:38:41,0.497,1.0,0.734,0.008
31/05/2022,08:39:42,0.507,1.0,0.743,0.009
31/05/2022,08:40:41,0.511,1.0,0.751,0.008
31/05/2022,08:41:50,0.506,1.0,0.761,0.01
31/05/2022,08:43:43,0.519,1.0,0.777,0.016
31/05/2022,08:44:42,0.525,1.0,0.786,0.009
31/05/2022,08:45:43,0.515,1.0,0.795,0.009
31/05/2022,08:46:51,0.500,1.0,0.804,0.009
31/05/2022,08:47:42,0.498,1.0,0.811,0.007
31/05/2022,08:48:42,0.483,1.0,0.819,0.008
31/05/2022,08:49:42,0.461,1.0,0.827,0.008
31/05/2022,08:50:42,0.436,1.0,0.835,0.008
31/05/2022,08:51:42,0.445,1.0,0.842,0.007
31/05/2022,08:52:42,0.471,1.0,0.85,0.008
31/05/2022,08:53:42,0.493,1.0,0.858,0.008
31/05/2022,08:54:42,0.511,1.0,0.866,0.008
31/05/2022,08:55:42,0.512,1.0,0.875,0.009
31/05/2022,08:56:50,0.497,1.0,0.884,0.009
31/05/2022,08:57:42,0.473,1.0,0.891,0.007
31/05/2022,08:58:41,0.436,1.0,0.899,0.008
31/05/2022,08:59:42,0.394,1.0,0.906,0.007
31/05/2022,09:00:42,0.382,1.0,0.912,0.006
31/05/2022,09:01:41,0.414,1.0,0.919,0.007
31/05/2022,09:02:41,0.449,1.0,0.926,0.007
31/05/2022,09:03:42,0.474,1.0,0.934,0.008
31/05/2022,09:04:49,0.484,1.0,0.942,0.008
31/05/2022,09:05:42,0.480,1.0,0.95,0.008
31/05/2022,09:06:42,0.462,1.0,0.957,0.007
31/05/2022,09:07:51,0.445,1.0,0.966,0.009
31/05/2022,09:09:42,0.453,1.0,0.98,0.014
31/05/2022,09:10:42,0.489,1.0,0.988,0.008
31/05/2022,09:11:42,0.548,1.0,0.996,0.008
31/05/2022,09:12:42,0.598,1.0,1.006,0.01
31/05/2022,09:13:42,0.622,1.0,1.016,0.01
31/05/2022,09:14:42,0.615,1.0,1.026,0.01
31/05/2022,09:15:42,0.589,1.0,1.036,0.01
31/05/2022,09:16:42,0.572,1.0,1.046,0.01
31/05/2022,09:17:50,0.573,1.0,1.057,0.011
31/05/2022,09:18:41,0.578,1.0,1.065,0.008
31/05/2022,09:19:42,0.580,1.0,1.075,0.01
31/05/2022,09:20:50,0.564,1.0,1.086,0.011
31/05/2022,09:21:41,0.528,1.0,1.094,0.008
31/05/2022,09:22:42,0.478,1.0,1.102,0.008
31/05/2022,09:23:42,0.458,1.0,1.11,0.008
31/05/2022,09:24:42,0.476,1.0,1.117,0.007
31/05/2022,09:25:42,0.510,1.0,1.126,0.009
31/05/2022,09:26:43,0.525,1.0,1.135,0.009
31/05/2022,09:27:42,0.524,1.0,1.143,0.008
31/05/2022,09:28:42,0.509,1.0,1.152,0.009
31/05/2022,09:29:42,0.478,1.0,1.16,0.008
31/05/2022,09:30:50,0.429,1.0,1.169,0.009
31/05/2022,09:32:42,0.375,1.0,1.181,0.012
31/05/2022,09:33:42,0.408,1.0,1.187,0.006
31/05/2022,09:34:42,0.478,1.0,1.195,0.008
31/05/2022,09:35:42,0.551,1.0,1.203,0.008
31/05/2022,09:36:42,0.621,1.0,1.213,0.01
31/05/2022,09:37:42,0.661,2.0,1.224,0.011
31/05/2022,09:38:42,0.662,2.0,1.235,0.011
31/05/2022,09:39:42,0.673,2.0,1.246,0.011
31/05/2022,09:40:42,0.718,2.0,1.257,0.011
31/05/2022,09:41:42,0.767,2.0,1.27,0.013
31/05/2022,09:42:42,0.804,2.0,1.283,0.013
31/05/2022,09:43:51,0.839,2.0,1.298,0.015
31/05/2022,09:45:43,0.857,2.0,1.325,0.027
31/05/2022,09:46:41,0.854,2.0,1.339,0.014
31/05/2022,09:47:42,0.930,2.0,1.354,0.015
31/05/2022,09:48:42,0.817,2.0,1.368,0.014
31/05/2022,09:49:42,0.775,2.0,1.381,0.013
31/05/2022,09:50:42,0.789,2.0,1.394,0.013
31/05/2022,09:51:42,0.869,2.0,1.408,0.014
31/05/2022,09:52:42,0.858,2.0,1.422,0.014
31/05/2022,09:53:42,0.883,2.0,1.437,0.015
31/05/2022,09:54:51,0.926,2.0,1.454,0.017
31/05/2022,09:56:43,1.147,3.0,1.486,0.032
31/05/2022,09:57:42,1.314,3.0,1.507,0.021
31/05/2022,09:58:42,1.327,3.0,1.53,0.023
31/05/2022,09:59:42,1.164,3.0,1.551,0.021
31/05/2022,10:00:42,1.241,3.0,1.571,0.02
31/05/2022,10:01:42,1.147,3.0,1.592,0.021
31/05/2022,10:03:43,1.266,3.0,1.633,0.041
31/05/2022,10:04:42,1.183,3.0,1.654,0.021
31/05/2022,10:05:42,1.380,3.0,1.675,0.021
31/05/2022,10:06:42,1.410,3.0,1.698,0.023
31/05/2022,10:07:51,1.529,4.0,1.727,0.029
31/05/2022,10:09:42,1.255,3.0,1.769,0.042
31/05/2022,10:10:42,1.202,3.0,1.789,0.02
31/05/2022,10:11:42,1.454,3.0,1.812,0.023
31/05/2022,10:12:42,1.526,4.0,1.836,0.024
31/05/2022,10:13:42,1.624,4.0,1.861,0.025
31/05/2022,10:14:42,1.612,4.0,1.888,0.027
31/05/2022,10:15:42,1.641,4.0,1.915,0.027
31/05/2022,10:16:42,1.259,3.0,1.939,0.024
31/05/2022,10:17:44,1.148,3.0,1.961,0.022
31/05/2022,10:18:40,1.636,4.0,1.986,0.025
31/05/2022,10:19:42,1.646,4.0,2.014,0.028
31/05/2022,10:20:51,1.649,4.0,2.045,0.031
31/05/2022,10:22:43,1.668,4.0,2.096,0.051
31/05/2022,10:23:42,1.672,4.0,2.124,0.028
31/05/2022,10:24:42,1.681,4.0,2.152,0.028
31/05/2022,10:25:44,1.686,4.0,2.181,0.029
31/05/2022,10:26:42,1.699,4.0,2.208,0.027
31/05/2022,10:27:42,1.711,4.0,2.237,0.029
31/05/2022,10:28:42,1.726,4.0,2.266,0.029
31/05/2022,10:29:42,1.721,4.0,2.294,0.028
31/05/2022,10:30:42,1.742,4.0,2.323,0.029
31/05/2022,10:31:42,1.752,4.0,2.352,0.029
31/05/2022,10:32:42,1.770,4.0,2.381,0.029
31/05/2022,10:33:42,1.410,3.0,2.41,0.029
31/05/2022,10:34:42,1.772,4.0,2.436,0.026
31/05/2022,10:35:42,1.772,4.0,2.465,0.029
31/05/2022,10:36:42,1.779,4.0,2.495,0.03
31/05/2022,10:37:43,1.807,4.0,2.525,0.03
31/05/2022,10:38:42,1.822,4.0,2.555,0.03
31/05/2022,10:39:42,1.852,4.0,2.586,0.031
31/05/2022,10:40:43,1.890,4.0,2.618,0.032
31/05/2022,10:41:42,1.909,4.0,2.649,0.031
31/05/2022,10:42:43,1.923,4.0,2.68,0.031
31/05/2022,10:43:42,1.725,4.0,2.712,0.032
31/05/2022,10:44:42,1.938,4.0,2.738,0.026
31/05/2022,10:45:42,1.985,5.0,2.771,0.033
31/05/2022,10:46:42,1.905,4.0,2.804,0.033
31/05/2022,10:47:50,1.215,3.0,2.83,0.026
31/05/2022,10:48:42,1.199,3.0,2.848,0.018
31/05/2022,10:49:43,2.010,5.0,2.876,0.028
31/05/2022,10:50:42,1.508,3.0,2.907,0.031
31/05/2022,10:51:42,1.448,3.0,2.93,0.023
31/05/2022,10:52:42,1.145,3.0,2.951,0.021
31/05/2022,10:53:42,1.368,3.0,2.973,0.022
31/05/2022,10:54:42,1.722,4.0,2.999,0.026
31/05/2022,10:55:42,1.801,4.0,3.028,0.029
31/05/2022,10:56:42,0.908,2.0,3.053,0.025
31/05/2022,10:57:50,1.002,2.0,3.07,0.017